Regional Weather Roundup
Issued by NWS

Home | Current Version | Previous Version | Graphics & Text | Print | Product List | Glossary On
Versions: 1 2 3 4 5 6 7 8 9 10 11 12 13 14 15 16 17 18 19 20 21 22 23 24 25 26 27 28 29 30 31 32 33 34 35 36 37 38 39 40 41 42 43 44 45 46 47 48 49 50
000
ASUS43 KFSD 240802
RWRSD

WEATHER ROUNDUP FOR SOUTH DAKOTA
NATIONAL WEATHER SERVICE SIOUX FALLS SD
300 AM CDT WED AUG 24 2016

NOTE: "FAIR" INDICATES FEW OR NO CLOUDS BELOW 12,000 FEET WITH NO
SIGNIFICANT WEATHER AND/OR OBSTRUCTIONS TO VISIBILITY.


SDZ001>005-009-010-012>017-240900-
NORTHWEST AND NORTH CENTRAL SOUTH DAKOTA

CITY           SKY/WX    TMP DP  RH WIND       PRES   REMARKS
BUFFALO          N/A     52  42  69 W12       30.03R
FAITH            N/A     56  38  50 W10       30.04R
MOBRIDGE       CLOUDY    59  43  55 W8        29.95R
$$

SDZ012>016-024>037-041>051-057-063-072>074-240900-
SOUTHWEST AND SOUTH CENTRAL SOUTH DAKOTA

CITY           SKY/WX    TMP DP  RH WIND       PRES   REMARKS
RAPID CTY ARPT CLOUDY    59  34  39 NW10      30.10R
PIERRE         CLEAR     57  47  69 SW5       29.97R
CUSTER         CLOUDY    54  26  34 NW5       30.19S
ELLSWORTH AFB  PTCLDY    56  37  47 NW10      30.09R
PHILIP         PTCLDY    51  44  77 W8        30.03R
PINE RIDGE     CLEAR     44  41  89 CALM      30.11R
WINNER         FAIR      54  47  77 SW8       30.00R
$$

SDZ004>011-016>023-039-040-240900-
NORTHEAST SOUTH DAKOTA

CITY           SKY/WX    TMP DP  RH WIND       PRES   REMARKS
ABERDEEN       CLEAR     60  47  61 N6        29.89S
WATERTOWN      CLEAR     66  57  72 NW10      29.88R
BROOKINGS      CLEAR     67  62  84 NW12      29.87R
$$

SDZ017-020-022-023-036>040-048>070-240900-
SOUTHEAST SOUTH DAKOTA

CITY           SKY/WX    TMP DP  RH WIND       PRES   REMARKS
SIOUX FALLS    CLOUDY    71  68  90 NW14      29.85R
HURON          CLEAR     54  48  80 NW7       29.89F
CHAMBERLAIN    CLEAR     54  50  85 W5        29.97R
MITCHELL       CLEAR     60  50  69 N7        29.90R
YANKTON        CLEAR     66  61  82 NW13      29.86R
$$

ABBREVIATIONS USED IN REMARKS
   TC - TEMPERATURE IN CELSIUS
  WCI - WIND CHILL INDEX
   HX - HEAT INDEX
  VSB - VISIBILITY




USA.gov is the U.S. government's official web portal to all federal, state and local government web resources and services.